Regional Weather Roundup
Issued by NWS Little Rock, AR

Home | Current Version | Previous Version | Graphics & Text | Print | Product List | Glossary On
Versions: 1 2 3 4 5 6 7 8 9 10 11 12 13 14 15 16 17 18 19 20 21 22 23 24 25 26 27 28 29 30 31 32 33 34 35 36 37 38 39 40 41 42 43 44 45 46 47 48 49 50
000
ASUS44 KLZK 170905
RWRLZK

WEATHER ROUNDUP FOR ARKANSAS
NATIONAL WEATHER SERVICE LITTLE ROCK AR
400 AM CDT FRI APR 17 2015

NOTE: "FAIR" INDICATES FEW OR NO CLOUDS BELOW 12,000 FEET WITH NO
SIGNIFICANT WEATHER AND/OR OBSTRUCTIONS TO VISIBILITY.

ARZ001-003-010-029-171000-
NORTHWEST ARKANSAS

CITY           SKY/WX    TMP DP  RH WIND       PRES   REMARKS
FAYETTEVILLE   MOCLDY    58  56  93 CALM      30.01F
FORT SMITH     CLOUDY    65  59  81 E8        29.97F
HARRISON       MOCLDY    57  57 100 CALM      30.04F
BENTONVILLE    PTCLDY    61  55  82 E6        30.02S
ROGERS         PTCLDY    60  57  89 E10       30.02F
SILOAM SPGS    MOCLDY    61  52  72 E6        30.02R
$$

ARZ004-005-016-171000-
NORTH CENTRAL ARKANSAS

CITY           SKY/WX    TMP DP  RH WIND       PRES   REMARKS
BATESVILLE     MOCLDY    57  55  94 CALM      30.04S
FLIPPIN        CLOUDY    57 N/A N/A NE5       30.01F
MTN HOME       MOCLDY    57  57 100 NE3       30.02F FOG
$$

ARZ040-041-171000-
WEST CENTRAL ARKANSAS

CITY           SKY/WX    TMP DP  RH WIND       PRES   REMARKS
MENA           CLOUDY    64  63  94 E3        29.98S
MOUNT IDA      CLOUDY    63  61  93 CALM      29.96R FOG
$$

ARZ009-017-025-026-028-171000-
NORTHEAST ARKANSAS

CITY           SKY/WX    TMP DP  RH WIND       PRES   REMARKS
CORNING          N/A     57  57 100 NE6       30.03F FOG
JONESBORO      MOCLDY    57  57 100 CALM      30.03R FOG
NEWPORT        CLOUDY    59  59 100 N5        30.04S
WALNUT RIDGE   PTCLDY    57  54  88 N3        30.03S
BLYTHEVILLE    CLOUDY    64  63  96 SE6       30.04S
$$

ARZ022-023-033-042-044-171000-
CENTRAL ARKANSAS

CITY           SKY/WX    TMP DP  RH WIND       PRES   REMARKS
LITTLE ROCK    CLOUDY    65  60  84 NE7       29.99F
N LITTLE ROCK    N/A     63  62  97 NE6       29.99F
JACKSONVILLE   MOCLDY    62  62  99 E5        29.99F
SEARCY         CLOUDY    61  59  93 N6        30.02S
HOT SPRINGS    CLOUDY    64  62  93 NE3       29.96F
RUSSELLVILLE   CLOUDY    65  60  84 CALM      29.99S
CLINTON        FAIR      57  57 100 CALM      30.03F FOG
$$

ARZ036-171000-
EAST ARKANSAS

CITY           SKY/WX    TMP DP  RH WIND       PRES   REMARKS
WEST MEMPHIS   CLOUDY    65  65 100 SE7       30.03R
$$

ARZ050-053-066-070-073-171000-
SOUTHWEST ARKANSAS

CITY           SKY/WX    TMP DP  RH WIND       PRES   REMARKS
ARKADELPHIA    FAIR      67  67 100 NE3       29.96S
CAMDEN         CLOUDY    66  63  88 NE5       29.96F
TEXARKANA      CLOUDY    64  63  96 CALM      29.95S
EL DORADO      CLOUDY    64  63  96 SE3       29.97R
DE QUEEN       MOCLDY    62  60  93 E3        29.94S
$$

ARZ056-057-069-171000-
SOUTHEAST ARKANSAS

CITY           SKY/WX    TMP DP  RH WIND       PRES   REMARKS
PINE BLUFF     CLOUDY    67  65  93 SE10      29.99F
STUTTGART      CLOUDY    64  63  94 E5        30.00S
MONTICELLO     CLOUDY    66  65  96 E5        29.96F FOG

$$





USA.gov is the U.S. government's official web portal to all federal, state and local government web resources and services.